COSMOS 2251 DEB, 33764

Orbit data source: Space-Track

COSMOS 2251 DEB, 33764 is space debris in LEO originally from a launch on Wed, 16 Jun 1993 UTC launched from the Plesetsk Missile And Space Complex (PKMTR). The debris from Iridium 33, an American commercial communications satellite, has been tracked extensively since its accidental collision with the defunct Russian satellite Cosmos 2251 in 2009. This event, occurring at high speed in low Earth orbit (LEO), generated thousands of pieces of space debris, significantly increasing the risk of further collisions. The Iridium 33 debris cloud has impacted space traffic management and orbital debris mitigation strategies, making it a subject of ongoing study in space situational awareness.

Loading next visibility...
Identifier
33764, 1993-036M
Orbit
LEO
Country
Flag of CISCIS
Related business
Manufacturer
Unknown
Mission
Spacecraft
Bus & Motor
Unknown
Mass
Unknown
Launch date (UTC)
1993-06-16 (33 years ago)
Launch vehicle
Unknown
Launch site
Plesetsk Missile And Space Complex (PKMTR)
Object type
Payload
Rocket body
Debris
Shape & HBR
Unknown shape, 0.4 m
Radar Cross Section
Medium (>0.1 m² and <1 m²)

Expand to show TLE details & history
Last TLE update: 15 hours ago

TLE from 15 hours ago
0 COSMOS 2251 DEB
1 33764U 93036M   26072.81084149  .00000872  00000-0  28617-3 0  9990
2 33764  74.0313 104.4655 0020969  42.7013 130.8239 14.39718770894678
Epoch: 2026-03-13T19:27Z
TLE epoch observation values (Epoch: 2026-03-13T19:27:36.704Z)
Latitude
5.97561°
Longitude
179.41426°
Altitude
771.27 km
Speed
7.464 km/s
True Right ascension
18h 51m 01s
True Declination
5° 56' 25"
Sunlit
Object was in daylight at epoch
Visualization orbit readout
Latitude
Unknown
Longitude
Unknown
Altitude
Unknown
Speed
Unknown
Apparent Right ascension
Unknown
Apparent Declination
Unknown
Sunlit
N/A
Visualization observer readout
Local Sidereal Time
14:42:17
Azimuth
Unknown
Elevation
Unknown
Doppler factor
Unknown
Orbital elements
Apogee altitude
772.01 km
Perigee altitude
742.086 km
Semi-major axis
7,135.185 km
Eccentricity
0.0021
Inclination
74.0313°
RAAN
104.4655°
Arg. of periapsis
42.7013°
True anomaly
131.00542°
Mean anomaly
130.8239°
Eccentric anomaly
130.91469°
Mean motion
3.6011 °/min
Orbital period
99.97 mins
BSTAR
0.00028617
Loading maneuver chart data...
Computing Atmospheric mass density...

Documentation

Showing up to 5 results
|